Zurück zum Katalog

COSMOS 970 DEB

AktivLEO
NORAD 10885·DEBRIS·🇷🇺 Russia

Gestartet Dec 21, 1977 von Baikonur Cosmodrome

Loading…

Nächste Überflüge (nächste 24 Stunden)

TLE

AktuellSource: Space-Track

Epoche: Sep 14, 2026, 07:14 UTC

1 10885U 77121AG  26257.30196988  .00000611  00000-0  76771-3 0  9995
2 10885  65.7908 202.8191 0064787 339.9488 172.4584 13.70486959419757

Verfolge COSMOS 970 DEB in Echtzeit mit AllMySat

Download on the App Store